www.pogodaiklimat.ru

Погода и климат >> Архив погоды >> Беларусь >> Пинск


АРХИВ ПОГОДЫ в Пинске

Время (UTC), дата Ветер
(напр.,м/с)
 
Видим.   Явления Облачность Т
(С)
Тd
(С)
f
(%)
Тe
(С)
Тes
(С)
Комфортность P
(гПа)
Po
(гПа)
Тmin
(С)
Tmax
(С)
R
(мм)
R24
(мм)
S
(см)
03 20.05 В 3 10 км 9/0
[Ac trans]
+16.1 +9.4 64 +16 +16 тепло 1011.5 994.8
06 20.05 ЮВ 3 10 км в посл. час гроза {ливн. осадки} 10/10 600 м
[Cb calv]
+15.1 +12.3 83 +14 +14 по сезону 1012.0 995.2 +14.6 2
09 20.05 В 4 12 км 8/0
[Ac trans]
+22.7 +16.3 67 +27 +32 душно 1011.6 995.3
12 20.05 ЮВ 6-11
{14}
15 км 6/6 600 м
[Sc]
+26.5 +15.9 52 +30 +32 душно 1010.5 994.5
15 20.05 ЮВ 6-11
{14}
15 км 8/5 1000 м
[Sc Ac trans]
+25.9 +14.9 51 +29 +29 душно 1009.5 993.5
18 20.05 ЮВ 3
{11}
10 км 8/5 1000 м
[Sc Ac trans]
+23.2 +14.9 60 +27 +27 душно 1008.8 992.6 +27.2
21 20.05 Ю 3 10 км в посл. час ливневой дождь 10/10 300 м
[St]
+20.8 +13.9 65 +24 +24 комфорт 1010.2 993.8
00 21.05 ЮВ 4
{11}
10 км {ливн. осадки} 10/10 300 м
[St]
+17.6 +14.5 82 +17 +17 тепло 1009.2 992.6
03 21.05 В 3 3800 м в посл. час ливневой дождь {гроза} 10/10 300 м
[Cb calv]
+16.1 +15.3 95 +16 +16 тепло 1009.1 992.4
06 21.05 В 3 10 км {гроза, ливн. осадки} 8/0
[Ac trans Ci fib]
+17.8 +14.0 78 +18 +22 тепло 1007.9 991.4 +16.0 4
09 21.05 ЮВ 5-10
{13}
10 км 9/9 600 м
[Sc]
+20.4 +14.7 70 +23 +24 комфорт 1007.9 991.5
12 21.05 ЮВ 6-10
{12}
10 км 10/4 1000 м
[Cu hum Ac trans Ci fib]
+21.9 +15.1 65 +25 +27 комфорт 1006.9 990.6
15 21.05 ЮЗ 3
{12}
10 км {ливн. осадки} 10/10 300 м
[Cb calv]
+18.6 +12.6 68 +19 +19 тепло 1006.1 989.6
18 21.05 В 2 6000 м дымка {гроза, ливн. осадки} 9/3 1000 м
[Sc Ac trans]
+14.9 +14.2 96 +15 +15 по сезону 1007.2 990.5 +22.5 12
21 21.05 ЮВ 3 3800 м дымка 8/0
[Ac trans]
+13.5 +13.0 97 +12 +12 по сезону 1008.1 991.3
00 22.05 ЮВ 2 3800 м дымка 9/9 600 м
[Sc]
+12.3 +11.9 97 +11 +11 по сезону 1008.2 991.3
03 22.05 ЮВ 2 300 м туман ?/? +11.1 +11.1 100 +10 +10 по сезону 1008.2 991.2
06 22.05 ЮВ 2 12 км {туман} 4/0
[Ci fib]
+15.4 +12.9 85 +15 +21 по сезону 1008.3 991.6 +10.9
09 22.05 ЮВ 3 20 км 8/8 600 м
[Cu Sc]
+19.8 +12.0 61 +22 +24 комфорт 1007.9 991.5
12 22.05 ЮВ 3 30 км 6/6 1000 м
[Cu hum]
+22.2 +12.0 52 +25 +29 комфорт 1007.8 991.5
15 22.05 СВ 2 30 км 6/6 1000 м
[Cu hum]
+22.7 +11.7 50 +25 +27 комфорт 1007.0 990.8
18 22.05 штиль 0 10 км 6/0
[Ac trans Ci fib]
+17.3 +12.6 74 +17 +17 по сезону 1007.7 991.1 +23.8
21 22.05 штиль 0 10 км 8/0
[Ac trans]
+14.5 +12.9 90 +14 +14 по сезону 1008.5 991.7
00 23.05 штиль 0 3600 м дымка 6/0
[Ci fib]
+12.2 +12.0 99 +12 +12 по сезону 1008.6 991.7
03 23.05 СВ 1 3800 м дымка 3/0
[Ci fib]
+11.0 +10.8 99 +11 +11 по сезону 1008.9 991.9
06 23.05 В 2 15 км 9/0
[Ci fib]
+19.5 +13.1 66 +22 +27 комфорт 1008.9 992.5 +10.8
09 23.05 ЮВ 3 20 км 8/6 1000 м
[Cu hum Ci fib]
+23.3 +12.5 51 +26 +31 жарко 1009.1 992.9
12 23.05 СВ 1 30 км 8/8 1000 м
[Cu hum]
+23.5 +11.5 47 +25 +28 комфорт 1008.8 992.6
15 23.05 З 2 30 км 6/3 1000 м
[Cu hum Ci fib]
+23.9 +11.4 45 +25 +29 комфорт 1008.1 991.9
18 23.05 штиль 0 10 км 9/0
[Ac trans Ci fib]
+18.7 +13.9 74 +19 +19 тепло 1008.9 992.4 +25.4
21 23.05 штиль 0 10 км 6/0
[Ac trans]
+16.0 +14.2 89 +16 +16 тепло 1009.8 993.1
00 24.05 СЗ 1 10 км 4/0
[Ac trans]
+15.5 +13.3 87 +16 +16 тепло 1009.8 993.1
03 24.05 С 2 9000 м дымка 6/0
[Ac trans Ci fib]
+14.8 +13.1 90 +14 +15 по сезону 1010.0 993.2
06 24.05 С 2 15 км 4/0
[Ci fib]
+18.8 +15.4 81 +20 +26 тепло 1010.2 993.7 +14.6
09 24.05 СЗ 1 30 км 8/0
[Ac trans Ci fib]
+21.1 +16.6 75 +25 +37 комфорт 1010.5 994.1
12 24.05 СЗ 3 30 км 6/6 1000 м
[Cu hum]
+22.8 +14.7 60 +26 +31 жарко 1009.0 992.8
15 24.05 ЮВ 2 6000 м гроза, ливневой дождь 10/10 300 м
[Cb calv]
+17.8 +14.6 82 +18 +18 по сезону 1010.2 993.6
18 24.05 З 1 3800 м дымка {гроза, ливн. осадки} 9/9 1000 м
[Sc]
+17.0 +16.2 95 +18 +18 тепло 1009.2 992.6 +24.0 3
21 24.05 С 2 3800 м дымка 9/9 1000 м
[Sc]
+15.7 +14.9 95 +16 +16 тепло 1009.9 993.2
00 25.05 СЗ 1 3800 м дымка 9/9 1000 м
[Sc]
+15.0 +14.3 96 +15 +15 тепло 1009.2 992.5
03 25.05 СЗ 1 3500 м дымка 8/3 1000 м
[Sc Ac trans]
+13.8 +13.6 99 +14 +14 по сезону 1008.8 992.0
06 25.05 С 3 9000 м дымка 10/0
[Ac trans Ci fib]
+16.5 +14.6 89 +16 +20 тепло 1009.1 992.5 +13.7
09 25.05 СЗ 3 15 км 6/3 1000 м
[Cu hum Ac trans Ci fib]
+20.8 +13.3 62 +24 +31 комфорт 1009.1 992.7
12 25.05 С 3 15 км 8/4 1000 м
[Cu hum Ac trans]
+21.7 +10.9 50 +24 +28 комфорт 1008.5 992.2
15 25.05 СЗ 4 20 км 3/1 1000 м
[Cu hum Ac trans]
+22.5 +10.3 46 +24 +27 комфорт 1008.1 991.9
18 25.05 СЗ 1 10 км 3/1 1000 м
[Sc Ci fib]
+20.0 +9.0 49 +22 +22 комфорт 1008.5 992.1 +23.2
21 25.05 З 1 10 км 4/0
[Ci fib]
+14.5 +9.2 70 +15 +15 по сезону 1010.0 993.2
00 26.05 СЗ 1 10 км 3/0
[Ci fib]
+13.5 +10.2 80 +14 +14 тепло 1010.5 993.6
03 26.05 С 1 10 км 4/0
[Ac trans]
+11.6 +9.6 88 +11 +12 по сезону 1012.1 995.1
06 26.05 С 2 10 км 6/0
[Ac trans]
+13.7 +8.3 70 +13 +17 по сезону 1013.0 996.1 +11.3
09 26.05 СЗ 4 10 км 8/8 1000 м
[Sc]
+16.5 +7.9 57 +16 +18 по сезону 1012.8 996.1
12 26.05 З 4
{10}
10 км 8/8 1000 м
[Cu hum]
+19.5 +9.4 52 +20 +22 по сезону 1011.5 995.0
15 26.05 СЗ 4
{10}
10 км 8/8 1000 м
[Cu hum Ci fib]
+20.2 +9.7 51 +22 +22 комфорт 1010.7 994.3
18 26.05 З 2 10 км 8/0
[Ci fib]
+18.3 +9.6 57 +19 +19 тепло 1010.9 994.3 +21.2
21 26.05 ЮЗ 1 10 км ясно +13.8 +10.1 78 +14 +14 по сезону 1012.0 995.1
00 27.05 ЮЗ 1 10 км ясно +12.0 +9.6 85 +12 +12 по сезону 1012.1 995.1

 

Местоположение метеостанции Пинск (Брестская область, Беларусь): широта 52.12 долгота 26.06 высота над уровнем моря 142 м.

В архиве по умолчанию представлена погода в Пинске за последнюю неделю. Архивные данные за месяц целиком и за предыдущие месяцы, начиная с января 2011 года, Вы можете получить, выбрав интересующий диапазон дат из раскрывающегося списка и нажав кнопку "Ввод!".


*Определитесь, кто Вы:
робот инопланетянин человек

Внимание! Время в таблицах - всемирное. Для получения местного времени необходимо прибавить поправку, которая равна 3 ч.

Смотрите также архив погоды в соседних городах и на ближайших метеорологических станциях:

Погода в Полесской (Брестская область, Беларусь) (48 км)
Погода в Дрогичине (Брестская область, Беларусь) (66 км)
Погода в Любешове (Волынская область, Украина) (74 км)
Погода в Ганцевичах (Брестская область, Беларусь) (75 км)
Погода в Ивацевичах (Брестская область, Беларусь) (80 км)
Погода в Маневичах (Волынская область, Украина) (100 км)
Погода в Сарнах (Ровенская область, Украина) (101 км)
Погода в Барановичах (Брестская область, Беларусь) (113 км)
Погода в Пружанах (Брестская область, Беларусь) (117 км)
Погода в Житковичах (Гомельская область, Беларусь) (124 км)

Пояснения к столбцам:

Ветер - указаны скорость ветра в м/с - средняя за 10 мин, порывы в срок и между сроками (в фигурных скобках) и направление, откуда дует ветер: С - северный, СВ - северо-восточный, В - восточный, ЮВ - юго-восточный, Ю - южный, ЮЗ - юго-западный, З - западный, СЗ - северо-западный.
Видимость - горизонтальная дальность видимости в метрах или километрах. При видимости от 1 до 10 км при отсутствии осадков обычно наблюдается дымка, при ухудшении видимости до 1 км и менее - туман. В сухую погоду видимость может ухудшаться дымом, пылью или мглою.
Явления - указаны атмосферные явления, наблюдавшиеся в срок или в последний час перед сроком; фигурными скобками обозначены явления, наблюдавшиеся между сроками (за 1-3 часа до срока); квадратными скобками обозначены град или гололедные отложения с указанием их диаметра в мм.
Облачность - указаны через наклонную черту общая и нижняя облачность в баллах и высота нижней границы облаков в метрах; квадратными скобками обозначены формы облаков: Ci - перистые, Cs - перисто-слоистые, Cc - перисто-кучевые, Ac - высококучевые, As - высокослоистые, Sc - слоисто-кучевые, Ns - слоисто-дождевые, Cu - кучевые, Cb - кучево-дождевые. Подробнее классификацию облаков см. в Атласе облаков (PDF).
T - Температура воздуха - температура, измеренная на высоте 2 м над землей.
Td - Температура точки росы - температура, при понижении до которой содержащийся в воздухе водяной пар достигнет насыщения.
f - Относительная влажность воздуха - влажноcть воздуха, измеренная на высоте 2 м над землей.
Te - Эффективная температура - температура, которую ощущает одетый по сезону человек в тени. Характеристика душности погоды. При расчете учитывается влияние влажности воздуха и скорости ветра на теплоощущения человека.
Tes - Эффективная температура на солнце - температура, которую ощущает человек, с поправкой на солнечный нагрев. Характеристика знойности погоды. Зависит от высоты солнца над горизонтом, облачности и скорости ветра. Ночью, в пасмурную погоду, а также при ветре 12 м/с и более поправка равна нулю.
P - Атмосферное давление - приведенное к уровню моря атмосферное давление.
Po - Атмосферное давление - измеренное на уровне метеостанции атмосферное давление.
Tmin - Минимальная температура - минимум температуры воздуха на высоте 2 м над землей.
Tmax - Максимальная температура - максимум температуры воздуха на высоте 2 м над землей.
R - Количество осадков - Количество выпавших осадков за период времени, мм. При наведении курсора мыши на число - период времени, за который выпало указанное количество осадков.
R24 - Количество осадков - Количество выпавших осадков за 24 часа, мм.
S - Снежный покров - Высота снежного покрова, см. При наведении курсора мыши на число - состояние снежного покрова и степень покрытия местности в баллах.